User: anonymous   Login
Location: Newark
(52.3500°N, 175.9667°E)
Time: 01:25:07
(UTC+00:00)
Language:

S-56A Canister/Altair - Orbit

View from above orbital plane
View from above orbital plane
View from above satellite
View from above satellite

Ground track
Ground track

The orbit data is extracted from the following two-line orbital elements,

1 00082U 61004B   21334.29130964 -.00000141  00000-0 -69617-4 0  9999
2 00082  38.8574  32.7722 1174740 125.4765 246.1319 12.26012938872966
Epoch (UTC): 30 November 2021 06:59:29
Eccentricity: 0.1174740
inclination: 38.8574°
perigee height: 633 km
apogee height: 2500 km
right ascension of ascending node: 32.7722°
argument of perigee: 125.4765°
revolutions per day: 12.26012938
mean anomaly at epoch: 246.1319°
orbit number at epoch: 87296

The dashed part of the orbit path shows where the satellite is in the earth's shadow,  

DLR